[[{"header":{"parameterUnit":"m.s-1","parameterCategory":1,"la1":30.2991,"la2":30.254,"lo1":-89.0895,"lo2":-89.0444,"dy":0.0017,"dx":0.0017,"nx":28,"ny":28,"refTime":"2025-08-04T09:00:00:Z","depth":0,"parameterNumber":2,"parameterNumberName":"U-component_of_WINDS"},"data":[0,0,0,0,0,0,0,0,0,0,0,0,0,0,0,0,0,0,0,0,0,0,0,0,0,0,0,0,0,0,0,0,0,0,0,0,0,0,0,0,0,0,0,0,0,0,0,0,0,0,0,0,0,0,0,0,0,0,-1.2808,-1.2808,0,-1.2795,-1.2795,-1.2795,-1.2764,-1.2763,-1.2762,-1.2762,-1.2748,-1.2748,-1.2748,0,0,0,0,0,0,0,0,0,0,0,0,0,-1.2804,-1.2804,-1.2808,-1.2808,-1.2808,-1.2795,-1.2795,-1.2795,-1.2764,-1.2763,-1.2762,-1.2762,-1.2748,-1.2748,-1.2748,0,0,0,0,0,0,0,0,0,0,0,0,0,-1.28,-1.2804,-1.2808,-1.2791,-1.2789,-1.2795,-1.2795,-1.2795,-1.2764,-1.2763,-1.2762,-1.2761,-1.2748,-1.2748,-1.2748,-1.277,0,0,-1.275,-1.275,0,0,0,0,0,0,0,0,-1.28,-1.28,-1.2794,-1.2792,-1.279,-1.278,-1.2788,-1.2787,-1.2764,-1.2774,-1.2762,-1.2761,-1.2759,-1.2759,-1.2758,-1.277,-1.2769,-1.275,-1.275,-1.275,-1.275,0,0,0,0,0,0,0,-1.2801,-1.2801,-1.2803,-1.2794,-1.2792,-1.2783,-1.2781,-1.2788,-1.2772,-1.2773,-1.277,-1.2769,-1.2758,-1.2758,-1.2758,-1.2769,-1.275,-1.275,-1.275,-1.275,-1.2794,-1.2795,0,0,0,0,0,0,-1.2804,-1.2801,-1.2804,-1.2803,-1.2793,-1.2784,-1.2782,-1.2784,-1.2772,-1.2769,-1.277,-1.2768,-1.2758,-1.2758,-1.2757,-1.278,-1.275,-1.275,-1.2751,-1.2793,-1.2794,-1.2795,0,0,0,0,0,0,-1.2804,-1.2804,-1.2804,-1.2801,-1.2801,-1.2785,-1.2788,-1.2785,-1.2784,-1.277,-1.2767,-1.2773,-1.2757,-1.2757,-1.2767,-1.2779,-1.275,-1.2751,-1.2792,-1.2794,-1.2795,-1.2827,0,0,0,0,0,0,-1.2804,-1.2804,-1.2813,-1.2802,-1.2801,-1.2814,-1.2789,-1.2785,-1.2785,-1.2782,-1.2772,-1.2769,-1.2756,-1.2766,-1.2767,-1.2779,-1.2751,-1.2791,-1.2793,-1.2794,-1.2825,-1.2829,-1.2833,0,0,0,0,0,-1.2804,-1.2823,-1.2814,-1.2814,-1.2812,-1.2815,-1.2815,-1.28,-1.2786,-1.2794,-1.2785,-1.277,-1.2778,-1.2768,-1.2768,-1.2781,-1.279,-1.2792,-1.2794,-1.2823,-1.2828,-1.2833,0,0,0,0,0,0,-1.2837,-1.2821,-1.2811,-1.2827,-1.2823,-1.281,-1.282,-1.2807,-1.2806,-1.2803,-1.2784,-1.2782,-1.2794,-1.2788,-1.2777,-1.28,-1.2781,-1.2784,-1.2803,-1.2808,-1.2812,-1.2813,-1.2751,0,0,0,0,0,-1.2846,-1.2851,-1.2837,-1.2853,-1.2851,-1.2836,-1.2837,-1.2826,-1.282,-1.2818,-1.2809,-1.2804,-1.2805,-1.2806,-1.2807,-1.2824,-1.282,-1.2832,-1.2837,-1.284,-1.2842,-1.2848,-1.2853,-1.2802,-1.2802,-1.2802,0,0,-1.2865,-1.2857,-1.2862,-1.2859,-1.2854,-1.2859,-1.2835,-1.2841,-1.2843,-1.2819,-1.2827,-1.282,-1.2813,-1.2826,-1.2831,-1.2822,-1.2855,-1.2843,-1.2846,-1.2846,-1.2851,-1.2856,-1.286,-1.2804,-1.2804,-1.2803,0,0,-1.2902,-1.2898,-1.2909,-1.2904,-1.2897,-1.2886,-1.2889,-1.2878,-1.2872,-1.288,-1.2861,-1.2864,-1.2867,-1.2862,-1.286,-1.2892,-1.2877,-1.2893,-1.2915,-1.2921,-1.2925,-1.2929,-1.2938,-1.2942,-1.2895,-1.2895,-1.2895,0,-1.2927,-1.2933,-1.2917,-1.2923,-1.2922,-1.2899,-1.291,-1.2906,-1.29,-1.2899,-1.2888,-1.289,-1.2884,-1.2894,-1.2901,-1.2901,-1.2902,-1.2894,-1.2926,-1.2929,-1.2932,-1.2941,-1.2945,-1.2897,-1.2897,-1.2897,-1.2896,0,-1.2963,-1.2967,-1.2977,-1.2971,-1.297,-1.2979,-1.2963,-1.2965,-1.2953,-1.2943,-1.295,-1.2942,-1.2939,-1.2941,-1.293,-1.2949,-1.2943,-1.293,-1.2911,-1.2939,-1.2947,-1.2951,-1.29,-1.2899,-1.2898,-1.2898,0,0,-1.3021,-1.3004,-1.3008,-1.3003,-1.2993,-1.2995,-1.3002,-1.2999,-1.3,-1.2996,-1.3,-1.3002,-1.2989,-1.2986,-1.2974,-1.298,-1.3004,-1.2965,-1.2965,-1.2972,-1.3022,-1.3031,-1.3035,-1.2994,-1.2995,-1.2995,-1.3022,0,-1.3054,-1.3065,-1.305,-1.3064,-1.3066,-1.3044,-1.305,-1.3043,-1.3034,-1.3034,-1.3024,-1.3025,-1.3008,-1.3006,-1.3011,-1.3,-1.3013,-1.2998,-1.2996,-1.2997,-1.2998,-1.304,-1.305,-1.3076,-1.3025,-1.3026,-1.3026,0,-1.3095,-1.3092,-1.3106,-1.3092,-1.3092,-1.3098,-1.3093,-1.3094,-1.3085,-1.3078,-1.3074,-1.3059,-1.3063,-1.3046,-1.3051,-1.304,-1.3039,-1.3033,-1.3034,-1.3032,-1.3012,-1.3038,-1.3084,-1.3087,-1.3031,-1.3031,-1.303,0,-1.3134,-1.3133,-1.3141,-1.3138,-1.3123,-1.3126,-1.312,-1.3111,-1.3109,-1.3104,-1.3103,-1.3099,-1.3096,-1.3093,-1.3077,-1.3066,-1.3083,-1.3064,-1.3076,-1.3076,-1.308,-1.308,-1.3124,-1.3081,-1.3081,-1.3081,-1.3081,0,-1.3172,-1.3181,-1.3157,-1.3162,-1.3171,-1.3152,-1.3161,-1.3153,-1.3144,-1.3146,-1.3127,-1.3128,-1.3108,-1.3107,-1.3094,-1.3099,-1.3099,-1.3092,-1.3088,-1.3093,-1.3093,-1.3091,-1.3088,-1.3082,-1.3082,-1.3081,-1.3081,0,-1.3217,-1.3202,-1.3208,-1.3192,-1.3189,-1.3196,-1.3182,-1.3185,-1.3174,-1.3176,-1.3175,-1.3158,-1.3155,-1.3139,-1.3134,-1.3125,-1.3134,-1.3128,-1.3137,-1.3134,-1.3146,-1.3144,-1.319,-1.3194,-1.3149,-1.315,-1.315,0,-1.3242,-1.3248,-1.3232,-1.3232,-1.3226,-1.3226,-1.3224,-1.3205,-1.3204,-1.3193,-1.3197,-1.3193,-1.3189,-1.3187,-1.3173,-1.3168,-1.316,-1.3176,-1.3159,-1.3163,-1.3158,-1.3158,-1.3157,-1.318,-1.318,-1.3181,-1.3181,0,-1.3286,-1.3278,-1.3276,-1.327,-1.3268,-1.3263,-1.3257,-1.3257,-1.3237,-1.3236,-1.3233,-1.323,-1.3223,-1.3219,-1.3211,-1.3204,-1.3188,-1.3187,-1.3189,-1.3193,-1.3197,-1.3193,-1.3145,-1.3186,-1.3185,-1.3185,-1.3185,-1.3184,-1.3321,-1.3324,-1.3313,-1.3311,-1.3304,-1.3298,-1.3299,-1.3288,-1.3285,-1.3278,-1.3267,-1.3266,-1.3255,-1.3243,-1.3236,-1.3234,-1.3225,-1.3229,-1.3229,-1.323,-1.3232,-1.3199,-1.3233,-1.3233,-1.3232,-1.3232,-1.3232,0,-1.3363,-1.3355,-1.3352,-1.3344,-1.3341,-1.3327,-1.3319,-1.3317,-1.3316,-1.3307,-1.3303,-1.3299,-1.3294,-1.3279,-1.3273,-1.3274,-1.3266,-1.3273,-1.3272,-1.327,-1.3241,-1.3239,-1.3278,-1.3278,-1.3278,-1.3278,-1.3278,-1.3278,-1.3385,-1.3389,-1.338,-1.338,-1.3371,-1.3369,-1.3365,-1.3359,-1.3351,-1.3348,-1.3343,-1.3334,-1.3322,-1.3314,-1.3309,-1.3304,-1.3302,-1.331,-1.3304,-1.3277,-1.3272,-1.3268,-1.3266,-1.331,-1.331,-1.3332,-1.3333,-1.3333]},{"header":{"parameterUnit":"m.s-1","parameterCategory":1,"la1":30.2991,"la2":30.254,"lo1":-89.0895,"lo2":-89.0444,"dy":0.0017,"dx":0.0017,"nx":28,"ny":28,"refTime":"2025-08-04T09:00:00:Z","depth":0,"parameterNumber":3,"parameterNumberName":"V-component_of_WINDS"},"data":[0,0,0,0,0,0,0,0,0,0,0,0,0,0,0,0,0,0,0,0,0,0,0,0,0,0,0,0,0,0,0,0,0,0,0,0,0,0,0,0,0,0,0,0,0,0,0,0,0,0,0,0,0,0,0,0,0,0,-2.2717,-2.2716,0,-2.2634,-2.2633,-2.2632,-2.2583,-2.2583,-2.2583,-2.2582,-2.2496,-2.2494,-2.2492,0,0,0,0,0,0,0,0,0,0,0,0,0,-2.2832,-2.283,-2.2717,-2.2716,-2.2715,-2.2634,-2.2633,-2.2631,-2.2583,-2.2583,-2.2583,-2.2582,-2.2496,-2.2494,-2.2491,0,0,0,0,0,0,0,0,0,0,0,0,0,-2.2769,-2.283,-2.2717,-2.2681,-2.2677,-2.2634,-2.2633,-2.2631,-2.2583,-2.2583,-2.2583,-2.2582,-2.2497,-2.2494,-2.2491,-2.2477,0,0,-2.2481,-2.248,0,0,0,0,0,0,0,0,-2.2772,-2.2765,-2.2688,-2.2684,-2.2679,-2.2618,-2.2641,-2.2579,-2.2583,-2.2619,-2.2582,-2.2582,-2.2537,-2.253,-2.2515,-2.2473,-2.2469,-2.2481,-2.2479,-2.2478,-2.2477,0,0,0,0,0,0,0,-2.2777,-2.2768,-2.2684,-2.2686,-2.2681,-2.2668,-2.2659,-2.2629,-2.258,-2.2616,-2.2612,-2.2603,-2.2534,-2.2518,-2.2513,-2.2468,-2.2481,-2.2478,-2.2476,-2.2475,-2.2407,-2.2408,0,0,0,0,0,0,-2.2787,-2.2772,-2.2687,-2.2682,-2.2726,-2.2666,-2.2656,-2.2638,-2.2581,-2.2571,-2.2603,-2.2601,-2.2524,-2.2517,-2.251,-2.2488,-2.2478,-2.2475,-2.2473,-2.2407,-2.2407,-2.2408,0,0,0,0,0,0,-2.279,-2.278,-2.269,-2.2726,-2.2713,-2.2665,-2.2645,-2.2637,-2.2621,-2.2571,-2.2562,-2.2596,-2.2523,-2.2514,-2.2485,-2.2484,-2.2473,-2.247,-2.2407,-2.2407,-2.2407,-2.2445,0,0,0,0,0,0,-2.2793,-2.2781,-2.2776,-2.2726,-2.2711,-2.2668,-2.2645,-2.2635,-2.2615,-2.2612,-2.2562,-2.2553,-2.2522,-2.249,-2.2482,-2.2479,-2.2468,-2.2407,-2.2407,-2.2407,-2.2444,-2.2446,-2.2449,0,0,0,0,0,-2.2798,-2.2791,-2.2776,-2.2766,-2.2704,-2.2668,-2.266,-2.2625,-2.2616,-2.2609,-2.2577,-2.2555,-2.2486,-2.2487,-2.2478,-2.2474,-2.2407,-2.2407,-2.2407,-2.2442,-2.2446,-2.2449,0,0,0,0,0,0,-2.2842,-2.2783,-2.2767,-2.2744,-2.2711,-2.266,-2.2651,-2.263,-2.2599,-2.2597,-2.2554,-2.2543,-2.2518,-2.2493,-2.2496,-2.2457,-2.2444,-2.2442,-2.2474,-2.2476,-2.2479,-2.2485,-2.2465,0,0,0,0,0,-2.2849,-2.2826,-2.2775,-2.2759,-2.2744,-2.27,-2.2683,-2.2659,-2.2623,-2.2609,-2.2575,-2.2541,-2.2511,-2.2493,-2.2463,-2.244,-2.2427,-2.2433,-2.2435,-2.2438,-2.2436,-2.2421,-2.2422,-2.2408,-2.2408,-2.2408,0,0,-2.2864,-2.2829,-2.2816,-2.2767,-2.2739,-2.2714,-2.2689,-2.2664,-2.2645,-2.2605,-2.2575,-2.2549,-2.2508,-2.2482,-2.2468,-2.246,-2.2437,-2.2438,-2.244,-2.2438,-2.2421,-2.2422,-2.2423,-2.2409,-2.2409,-2.2409,0,0,-2.2877,-2.2849,-2.2831,-2.2804,-2.2761,-2.2732,-2.2728,-2.268,-2.266,-2.263,-2.2599,-2.2575,-2.2525,-2.2497,-2.2476,-2.2476,-2.2454,-2.2467,-2.2481,-2.2466,-2.2467,-2.2468,-2.2466,-2.2466,-2.2467,-2.2467,-2.2467,0,-2.29,-2.2862,-2.2825,-2.2801,-2.278,-2.2743,-2.2724,-2.2699,-2.2649,-2.2634,-2.2626,-2.2561,-2.2531,-2.2497,-2.2497,-2.2481,-2.2474,-2.2473,-2.247,-2.247,-2.247,-2.2468,-2.2468,-2.2468,-2.2468,-2.2468,-2.2468,0,-2.2891,-2.2865,-2.2856,-2.2809,-2.2786,-2.2765,-2.2724,-2.2705,-2.2682,-2.2654,-2.2622,-2.2584,-2.2545,-2.2535,-2.2513,-2.2497,-2.2493,-2.2478,-2.2464,-2.2474,-2.2471,-2.247,-2.2471,-2.247,-2.247,-2.2469,0,0,-2.2931,-2.2862,-2.2859,-2.2836,-2.2786,-2.2765,-2.2741,-2.2703,-2.2687,-2.2654,-2.2632,-2.259,-2.2575,-2.2551,-2.2525,-2.2512,-2.2512,-2.2498,-2.2496,-2.2501,-2.249,-2.2501,-2.2501,-2.2498,-2.2497,-2.2497,-2.2493,0,-2.2936,-2.2892,-2.2857,-2.2826,-2.2801,-2.2764,-2.2743,-2.271,-2.2682,-2.2655,-2.2625,-2.2595,-2.2578,-2.2563,-2.2549,-2.2516,-2.2509,-2.2515,-2.2475,-2.2475,-2.2486,-2.25,-2.2511,-2.2509,-2.2492,-2.2492,-2.2492,0,-2.2936,-2.2903,-2.2869,-2.282,-2.2808,-2.279,-2.2751,-2.2727,-2.2687,-2.2668,-2.264,-2.2613,-2.2585,-2.2574,-2.2534,-2.2539,-2.252,-2.2501,-2.25,-2.2494,-2.2483,-2.2493,-2.2508,-2.2508,-2.249,-2.249,-2.249,0,-2.2966,-2.2913,-2.2886,-2.2868,-2.281,-2.2798,-2.2773,-2.2734,-2.2712,-2.2678,-2.2663,-2.2626,-2.2606,-2.2577,-2.254,-2.2536,-2.2503,-2.249,-2.2485,-2.2486,-2.248,-2.248,-2.2491,-2.247,-2.247,-2.247,-2.247,0,-2.2974,-2.2954,-2.2898,-2.2882,-2.2858,-2.2818,-2.2795,-2.2767,-2.2732,-2.2708,-2.2674,-2.2652,-2.2605,-2.2577,-2.2548,-2.2518,-2.251,-2.2492,-2.2485,-2.2495,-2.2497,-2.2481,-2.248,-2.2469,-2.2469,-2.247,-2.247,0,-2.3003,-2.2965,-2.2933,-2.288,-2.2867,-2.2852,-2.2806,-2.2788,-2.2758,-2.2728,-2.2719,-2.2671,-2.2637,-2.2597,-2.2549,-2.2529,-2.2501,-2.2491,-2.2515,-2.251,-2.2507,-2.2508,-2.2507,-2.2505,-2.2487,-2.2487,-2.2487,0,-2.3011,-2.2994,-2.294,-2.2922,-2.2898,-2.2869,-2.2847,-2.2806,-2.2784,-2.2737,-2.2724,-2.2686,-2.2654,-2.26,-2.2561,-2.2524,-2.2511,-2.2514,-2.2505,-2.2515,-2.2509,-2.251,-2.2508,-2.2516,-2.2516,-2.2516,-2.2517,0,-2.3027,-2.3008,-2.2978,-2.294,-2.2914,-2.2883,-2.285,-2.2836,-2.2789,-2.2766,-2.2729,-2.2705,-2.2655,-2.2618,-2.2576,-2.2549,-2.2524,-2.252,-2.2516,-2.2526,-2.254,-2.2531,-2.252,-2.252,-2.2519,-2.2519,-2.2519,-2.2519,-2.3044,-2.3027,-2.2986,-2.2953,-2.2924,-2.2893,-2.2873,-2.284,-2.2809,-2.2766,-2.2744,-2.2707,-2.2666,-2.2607,-2.2581,-2.2551,-2.2543,-2.2539,-2.2538,-2.2537,-2.2539,-2.2546,-2.2544,-2.2544,-2.2544,-2.2543,-2.2543,0,-2.3057,-2.3029,-2.2998,-2.2953,-2.2926,-2.2906,-2.2868,-2.2846,-2.2815,-2.2779,-2.2748,-2.2706,-2.2669,-2.2627,-2.2587,-2.2572,-2.2559,-2.2562,-2.2563,-2.2557,-2.255,-2.2556,-2.2573,-2.2573,-2.2573,-2.2573,-2.2573,-2.2573,-2.3061,-2.3031,-2.3008,-2.2962,-2.2934,-2.2898,-2.2878,-2.2849,-2.282,-2.2774,-2.2744,-2.2717,-2.2677,-2.2635,-2.2599,-2.2588,-2.2574,-2.2581,-2.2566,-2.256,-2.2557,-2.2555,-2.256,-2.2578,-2.2578,-2.2575,-2.2575,-2.2575]}]]